Weather in Voloshka

Russia / Arkhangel'skaya Oblast'     61°19′53″N   40°05′35″E
temp.,
°C
wind,
m/s
gust,
m/s
humid.,
%
clouds,
%
prec.,
mm/h
press.,
hPa
HPBL,
m
27 september, mon
mon2700:00+7n2896100 0.0 1021340
03:00+6n3997100 0.0 1023333
06:00+6n3998100 0.0 1025313
09:00+8nne3893100 0.0 1026456
12:00+9nne3790100 0.0 1028634
15:00+10nne378398 0.1 1029716
18:00+8ene2689100 0.1 1030247
21:00+7ne2793100 0.1 1031379
28 september, tue
tue2800:00+7ne2594100 0.0 1032261
03:00+6ene1396100 0.0 1033110
06:00+3ene119878 0.0 103410
09:00+7e118668 0.0 1035223
12:00+11n126994 0.0 1034757
15:00+11n1266100 0.0 10341037
18:00+9nnw1175100 0.0 103412
21:00+6nnw1191100 0.0 103510
29 september, wed
wed2900:00+5wnw1194100 0.0 103613
03:00+5wnw229670 0.0 103625
06:00+4wnw229669 0.0 103537
09:00+8nw248592 0.0 1035227
12:00+12nw237077 0.0 1035608
15:00+13nw346987 0.0 1034727
18:00+9nw238894 0.0 103451
21:00+8nw229492 0.0 103434
30 september, thu
thu3000:00+7nw119663 0.0 103417
03:00+6nw229654 0.0 103528
06:00+5nw22965 0.0 103524
09:00+9nw24835 0.0 1035227
12:00+13nw23655 0.0 1034626
15:00+14nw23635 0.0 1033811
18:00+9wnw22885 0.0 103324
21:00+7nw22945 0.0 103329
1 october, fri
fri100:00+6wnw22965 0.0 103323
03:00+6wnw11965 0.0 103313
06:00+5w119631 0.0 103311
09:00+8wsw1283100 0.0 1033173
12:00+12wsw236793 0.0 1032529
15:00+13wsw246882 0.0 1031862
18:00+11sw247798 0.0 103097
21:00+10sw278494 0.0 1030242